Location: Casperia
(42.3333°N, 12.6667°E)
Time: 14:04:27
(UTC+00:00)

Daily predictions for brighter satellites

Satellite Brightness Start Highest point End
(mag) Time Altitude Azimuth Time Altitude Azimuth Time Altitude Azimuth
MetOp-A 4.2 19:12:16 10° SSE 19:17:38 89° W 19:23:02 10° NNW
Cosmos 2150 Rocket 4.2 19:16:53 10° NNW 19:22:05 79° WSW 19:27:20 10° SSE
Cosmos 2058 Rocket 3.9 19:18:25 10° NNW 19:22:50 55° W 19:27:12 10° S
USA 215 4.0 19:18:10 10° ENE 19:23:45 29° SE 19:29:16 10° S
USA 186 4.0 19:21:35 10° SSW 19:24:26 26° W 19:27:15 10° NW
GEOS 3 Rocket 4.3 19:20:59 10° NE 19:25:54 35° ESE 19:30:46 10° S
ATLAS 5 CENTAUR R/B 1.9 19:22:46 10° S 19:26:31 37° ESE 19:30:36 10° NE
ATLAS CENTAUR R/B 2.5 19:24:48 10° WNW 19:26:40 26° SW 19:29:38 10° SSE
Cosmos 1844 Rocket 3.6 19:26:18 10° N 19:31:24 35° ENE 19:36:27 10° ESE
H-2A ROCKET BODY 4.0 19:31:02 10° SW 19:35:05 25° SSE 19:46:05 10° ESE
Cosmos 1758 Rocket 4.3 19:32:00 10° SSE 19:36:04 35° E 19:40:10 10° NNE
Meteor 2-10 Rocket 3.7 19:31:49 10° N 19:36:51 56° ENE 19:42:02 10° SSE
Cosmos 1626 Rocket 3.7 19:33:11 10° S 19:37:38 80° W 19:42:08 10° N
Cosmos 1400 Rocket 4.2 19:35:51 10° NNE 19:39:08 24° ENE 19:42:04 11° SE
Lacrosse 5 rocket 4.3 19:37:46 10° WNW 19:40:37 17° NNW 19:43:22 10° NNE
Spot 2 Rocket 4.2 19:36:40 10° SE 19:41:23 41° ENE 19:46:09 10° N
BREEZE-M DEB (TANK) 4.3 19:34:16 10° SSW 19:41:30 29° SSE 19:44:17 10° E
OAO 3 Rocket 4.0 19:37:36 10° WSW 19:42:02 34° S 19:46:11 11° ESE
Cosmos 1745 Rocket 4.0 19:39:40 10° S 19:45:47 69° E 19:52:00 10° NNE
Landsat 7 4.5 19:42:55 11° SE 19:47:10 40° ENE 19:51:37 10° N
Resurs 1-3 4.3 19:44:58 10° S 19:49:15 54° W 19:53:34 10° NNW
Cosmos 1125 Rocket 3.8 19:47:07 10° NNW 19:52:21 68° WSW 19:57:34 10° S
Meteor 1-21 Rocket 4.3 19:48:59 10° S 19:54:53 86° E 20:00:51 10° N
SPOT 1/Viking Rocket 4.1 19:51:15 13° SE 19:55:32 42° ENE 20:00:23 10° N
Cosmos 1953 Rocket 4.4 19:56:04 14° SSE 19:59:13 32° E 20:03:03 10° NNE
VEP-3 4.2 19:56:39 10° SW 20:00:30 18° S 20:03:43 14° SE
Cosmos 2322 Rocket 3.2 19:55:15 10° SW 20:00:39 49° WNW 20:06:07 10° NNE
SL-08 ROCKET BODY 4.4 19:55:21 10° S 20:01:16 90° NNW 20:07:21 10° N
Alouette 2 Rocket 4.2 19:58:35 10° N 20:02:21 43° ENE 20:06:10 16° SE
Cosmos 2237 4.3 19:57:34 10° SSW 20:03:17 83° WNW 20:09:04 10° NNE
Cosmos 1328 3.9 20:01:45 11° S 20:05:32 56° E 20:09:26 10° NNE
OAO 2 Rocket 4.1 20:00:52 10° SW 20:05:38 35° S 20:09:32 14° ESE
SAR-Lupe-2 4.0 20:07:53 10° NNE 20:11:20 43° E 20:13:37 18° SSE
Cosmos 1455 2.3 20:09:39 10° NNW 20:13:30 74° W 20:16:46 14° S
Cosmos 1825 Rocket 3.5 20:10:25 10° S 20:14:49 75° E 20:19:17 10° NNE
Cosmos 1703 3.2 20:15:35 10° S 20:19:27 84° W 20:23:21 10° N
ATLAS CENTAUR R/B 3.0 20:17:12 10° N 20:20:03 21° NE 20:22:16 13° E
COSMOS 2428 3.1 20:15:32 12° S 20:20:28 41° ESE 20:25:46 10° NE
SL-24 R/B - RUBIN 2 4.4 20:17:27 10° SSW 20:23:22 83° ESE 20:29:58 10° NE
Cosmos 2322 3.7 20:18:37 10° SSW 20:24:19 76° ESE 20:30:03 10° NNE
Cosmos 1844 3.7 20:19:54 10° NNW 20:25:41 76° ENE 20:29:32 22° SSE
Delta 2 Rocket 3.9 20:25:08 10° WSW 20:27:58 25° S 20:28:10 25° S
CZ-4B DEB 4.4 20:28:15 30° SSE 20:29:43 64° ENE 20:33:03 10° N
Cosmos 1709 Rocket 4.0 20:24:33 10° S 20:30:50 85° E 20:37:13 10° N
NOSS 3-3 (A) 3.9 20:27:17 10° SSW 20:32:55 60° ESE 20:39:13 10° NE
NOSS 3-3 (C) 3.9 20:27:24 10° SSW 20:33:02 59° ESE 20:39:19 10° NE
Terra 2.5 20:31:40 23° SE 20:34:08 40° ENE 20:38:35 10° N
Cosmos 2237 Rocket 3.5 20:33:12 19° ESE 20:34:20 21° E 20:38:25 10° NE
CARTOSAT-1 3.6 20:32:57 26° SSE 20:35:15 64° ENE 20:39:32 10° N
Cosmos 2333 4.2 20:30:29 10° SSW 20:36:07 90° SE 20:41:51 10° NNE
Atlas Centaur 2 3.4 20:30:58 10° WSW 20:36:09 29° S 20:38:47 23° SE
Cosmos 2219 Rocket 2.2 20:31:00 10° S 20:36:29 63° ESE 20:42:02 10° NNE
IGS 5A 3.9 20:35:34 18° S 20:38:28 56° W 20:42:34 10° NNW
Cosmos 2360 Rocket 3.3 20:33:10 10° SW 20:38:33 46° WNW 20:44:01 10° NNE
Cosmos 1538 Rocket 4.1 20:35:01 15° S 20:39:19 60° ESE 20:44:35 10° NNE
IRIS 3.5 20:40:31 10° W 20:43:18 67° S 20:43:18 67° S
DELTA 2 R/B (1) 4.0 20:39:13 10° SW 20:44:18 37° SSE 20:49:11 11° E
BREEZE-M (TANK) 4.2 20:42:01 16° S 20:45:15 43° ESE 20:58:28 10° ENE
Cosmos 2333 Rocket 2.1 20:40:37 10° SSW 20:46:17 81° ESE 20:52:02 10° NNE
Resurs 01 Rocket 3.9 20:47:24 10° SW 20:50:29 19° W 20:53:37 10° NW
Cosmos 1315 Rocket 3.0 20:48:47 10° N 20:52:52 60° ENE 20:54:13 38° SE
ATLAS 2AS CENTAUR R/B 4.2 20:46:12 10° NNW 20:52:52 31° NE 20:59:01 10° E
Cosmos-2242 4.0 20:52:09 10° NNW 20:56:15 42° W 20:59:06 18° SSW
Cosmos 773 Rocket 4.4 20:51:06 10° SSW 20:56:20 63° WNW 21:01:37 10° NNE
ERS-1 Rocket 3.1 20:56:51 27° S 20:59:39 72° WSW 21:04:43 10° NNW
Cosmos 2221 3.1 20:57:09 10° N 21:01:20 43° ENE 21:02:29 35° ESE
Cosmos 1892 3.6 21:07:02 32° E 21:07:02 32° E 21:10:26 10° NNE
USA 215 3.4 21:00:34 10° NE 21:07:09 80° NW 21:13:41 10° SW
Cosmos 2278 Rocket 2.8 21:05:10 10° NNW 21:10:37 46° ENE 21:13:09 28° ESE
ATLAS 5 CENTAUR R/B 3.9 21:07:42 10° W 21:11:14 25° NW 21:15:08 10° NNE
Cosmos 1844 Rocket 3.8 21:10:15 10° NW 21:15:13 34° WSW 21:18:16 20° SSW
SPOT 5 3.3 21:13:56 29° SSW 21:16:24 57° W 21:21:13 10° NNW
SL-16 R/B 3.9 21:18:56 17° E 21:18:56 17° E 21:22:13 10° ENE
Cosmos 2154 Rocket 4.2 21:23:04 36° SSE 21:25:21 54° E 21:31:23 10° NNE
Cosmos 2058 3.0 21:25:00 54° ESE 21:25:25 57° E 21:29:31 10° NNE
Nadezhda 3 Rocket 4.4 21:20:34 10° N 21:26:47 52° ENE 21:29:11 35° SE
Cosmos 1408 3.6 21:29:06 32° ENE 21:29:06 32° ENE 21:31:46 10° NNE
BREEZE M DEB (TANK) 4.0 21:26:51 10° WNW 21:27:39 19° WNW 21:27:39 19° WNW
Meteor 2-17 Rocket 4.3 21:27:25 35° S 21:30:07 78° E 21:36:11 10° N
In-Cosmos 22 Rocket 4.0 21:29:55 42° S 21:31:45 77° E 21:37:04 10° NNE
Cosmos 2074 Rocket 4.0 21:29:15 29° SSW 21:32:38 82° W 21:38:54 10° N
Cosmos 1076 Rocket 3.4 21:36:08 62° SE 21:36:37 69° E 21:40:54 10° NNE
Cosmos 1680 Rocket 3.5 21:35:41 46° SSE 21:37:06 65° ESE 21:42:23 10° NNE
TSX-5 4.0 21:33:36 10° NNW 21:37:10 60° ENE 21:37:36 55° E
USA 267 3.5 21:34:04 24° ESE 21:38:10 68° NE 21:44:42 10° NW
Cosmos 2151 3.8 21:47:19 37° E 21:47:19 37° E 21:51:04 10° NNE
Cosmos 2084 3.6 21:43:21 10° NW 21:47:44 58° WSW 21:48:05 56° SW
Cosmos 1842 Rocket 4.2 21:43:55 10° NNW 21:48:04 45° W 21:49:02 38° SW
OAO 2 Rocket 4.4 21:45:07 10° WSW 21:48:29 30° SW 21:48:29 30° SW
EO 1 Delta rocket 4.4 21:46:02 10° NNE 21:51:12 61° E 21:52:50 45° SSE
Cosmos 923 Rocket 4.2 21:52:20 33° SW 21:54:40 68° WNW 21:59:57 10° NNE
Cosmos 2327 Rocket 4.5 21:52:14 37° SSW 21:54:50 81° W 22:01:01 10° N
Cosmos 1825 2.7 21:58:09 48° ENE 21:58:09 48° ENE 22:01:17 10° NNE
ALOS 2 3.7 21:58:03 31° E 21:58:35 33° ENE 22:02:31 10° N
ATLAS CENTAUR R/B 2.3 21:55:41 10° NW 21:58:26 31° W 21:58:26 31° W
Cosmos 1980 3.8 21:56:55 33° SW 21:59:33 75° WNW 22:05:14 10° NNE
Cosmos 1151 Rocket 4.4 21:59:21 10° NNE 22:03:00 26° ENE 22:03:13 26° E
Cosmos 44 4.0 22:05:15 34° ENE 22:05:15 34° ENE 22:08:15 10° NE
COSMOS 2428 4.4 21:59:51 10° WSW 22:04:50 31° NW 22:09:51 10° N
Cosmos 1295 Rocket 4.4 22:06:31 46° S 22:08:32 88° W 22:14:41 10° N
GP-B 3.9 22:07:18 10° NNE 22:11:23 39° E 22:11:23 39° E
Terra 3.6 22:10:34 19° WSW 22:12:00 22° W 22:15:41 10° NW
Cosmos 962 Rocket 4.4 22:12:15 49° S 22:14:07 81° E 22:20:31 10° N
Cosmos 1624 Rocket 4.0 22:10:51 10° NNW 22:16:05 71° ENE 22:16:57 58° SE
NOSS 3-4 (A) 3.8 22:09:31 10° NW 22:16:38 84° NE 22:19:47 40° SE
NOSS 3-4 (C) 3.8 22:09:38 10° NW 22:16:44 83° NE 22:19:55 40° SE
Cosmos 2237 Rocket 2.7 22:14:58 28° SW 22:17:53 58° WNW 22:23:31 10° NNE
Genesis I 3.7 22:18:35 54° WNW 22:18:51 55° NW 22:22:42 10° NNE
Cosmos 2344 3.4 22:16:02 26° SW 22:20:40 90° SE 22:28:36 10° NE
Cosmos 2219 Rocket 4.4 22:16:41 10° W 22:20:55 22° NW 22:25:10 10° N
Nimbus 7 Rocket 4.4 22:15:13 10° NNE 22:21:08 69° ESE 22:22:21 54° SSE
Atlas Centaur 2 4.3 22:19:32 10° WSW 22:21:21 16° SW 22:21:21 16° SW
DELTA 2 R/B (1) 3.5 22:24:49 10° WSW 22:36:22 - E 22:30:03 64° SSW
Thor Agena Rocket 4.1 22:26:51 10° N 22:31:48 52° WNW 22:33:18 38° WSW
BREEZE-M DEB (TANK) 3.5 22:39:29 10° NW 22:41:22 26° NNW 22:41:22 26° NNW
Cosmos 1515 Rocket 4.4 22:39:10 10° N 22:43:14 39° ENE 22:43:14 39° ENE
Cosmos 1371 Rocket 4.1 22:38:37 10° NNW 22:43:47 58° WSW 22:44:15 56° SW
Cosmos 1766 Rocket 3.5 22:44:24 78° WNW 22:44:24 78° WNW 22:48:42 10° N
ATLAS 2AS CENTAUR R/B 2.7 22:37:06 10° NW 22:44:33 73° WSW 22:46:25 51° S
Okean 3 Rocket 3.8 22:47:03 63° W 22:47:07 63° W 22:51:33 10° N
Gbstr 26 Del rocket 4.3 22:49:28 28° ENE 22:49:28 28° ENE 22:51:34 10° ENE
Cosmos 1328 Rocket 3.5 22:46:22 10° N 22:50:25 76° NNE 22:50:25 76° NNE
Aureole 2 Rocket 4.5 22:47:52 10° NNW 22:48:59 21° NNW 22:48:59 21° NNW
Cosmos 2218 Rocket 3.9 22:50:54 55° S 22:52:26 89° ESE 22:58:48 10° N
Cosmos 1606 3.3 22:49:08 10° NNW 22:52:19 55° NW 22:52:19 55° NW
Cosmos 864 Rocket 4.4 22:52:05 57° S 22:53:28 83° E 22:59:46 10° N
Cosmos 2278 Rocket 3.5 22:49:47 10° NW 22:54:24 26° WSW 22:54:59 26° WSW
Cosmos 2297 3.6 22:50:29 10° NNW 22:56:16 90° ENE 22:57:11 65° SSE
Cosmos 2366 rocket 3.9 22:56:35 55° S 22:58:07 87° W 23:04:31 10° N
Cosmos 2228 Rocket 4.3 22:54:48 10° N 22:58:56 32° ENE 22:59:19 32° E
Cosmos 1420 Rocket 3.8 22:54:45 10° NNW 23:00:03 88° ENE 23:00:36 73° SSE
Cosmos 1633 3.9 23:01:11 36° NE 23:01:11 36° NE 23:03:37 10° NNE
Lacrosse 5 rocket 4.0 22:59:15 10° NNW 23:01:56 17° NNE 23:04:33 10° ENE
SL-16 R/B 2.3 23:00:46 50° SW 23:02:10 69° WNW 23:07:52 10° NNE
Cosmos 1943 Rocket 2.8 22:57:23 10° NNW 23:02:54 50° ENE 23:04:40 37° ESE
Cosmos 1821 Rocket 4.5 23:05:53 40° ESE 23:07:07 45° E 23:12:52 10° NNE
Cosmos 2056 Rocket 4.2 23:02:35 10° NNW 23:07:40 42° WSW 23:07:58 42° WSW
Cosmos 1959 Rocket 4.5 23:06:20 53° SW 23:07:47 72° W 23:13:58 10° N
YAOGAN 11 4.2 23:09:09 68° ENE 23:09:09 68° ENE 23:13:28 10° N
BREEZE-M DEB (TANK) 4.4 22:56:57 10° SW 23:11:28 58° SSE 23:15:54 10° ENE
Cosmos 1743 Rocket 3.8 23:12:36 58° ENE 23:12:36 58° ENE 23:16:30 10° NNE
Cosmos 1048 Rocket 3.9 23:19:32 68° SE 23:19:54 71° ESE 23:25:09 10° NNE
Cosmos 332 Rocket 3.6 23:16:34 10° NNW 23:21:23 89° ENE 23:21:28 87° SE
USA 267 3.9 23:21:24 36° SW 23:21:25 36° SW 23:27:23 10° WNW
Meteor 2-3 Rocket 3.8 23:21:02 55° SW 23:22:03 66° WNW 23:27:44 10° N
Helios 1A 3.4 23:24:53 56° WNW 23:24:53 56° WNW 23:28:29 10° NNW
Cosmos 405 4.1 23:26:39 10° N 23:29:08 43° N 23:29:08 43° N
Cosmos 1340 4.2 23:34:23 29° WNW 23:34:23 29° WNW 23:37:17 10° NNW
Meteor 1-26 Rocket 4.5 23:28:30 10° NNW 23:34:23 59° W 23:35:20 53° SW
Cosmos 1452 Rocket 3.4 23:29:35 10° NNW 23:34:50 69° WSW 23:35:06 67° SW
ALOS 2 4.3 23:35:27 23° W 23:35:27 23° W 23:38:28 10° NW
CZ-4C R/B 3.7 23:29:04 10° NNW 23:36:04 51° NE 23:44:03 10° ESE
SL-16 R/B 4.3 23:31:36 10° ESE 23:36:30 25° ENE 23:41:27 10° N
Meteor 2-6 Rocket 4.3 23:31:24 10° N 23:36:51 63° ENE 23:37:54 52° SE
PSLV R/B 3.6 23:32:37 10° NNE 23:36:34 75° NE 23:36:34 75° NE
COSMOS 2455 2.8 23:30:50 10° NNW 23:36:55 88° ENE 23:38:25 54° SSE
Cosmos 1603 3.7 23:36:25 59° SE 23:37:06 65° ESE 23:42:45 10° NNE
Cosmos 1500 Rocket 3.8 23:44:49 61° WNW 23:44:49 61° WNW 23:49:04 10° N
Cosmos 1727 Rocket 4.2 23:40:43 10° NNW 23:46:47 55° W 23:48:04 47° SW
Resurs 1-4 Rocket 3.8 23:43:21 10° NE 23:47:24 22° E 23:48:44 20° ESE
Cosmos 2369 Rocket 2.2 23:41:50 10° NNW 23:47:28 78° ENE 23:48:49 53° SE
ISS -1.4 23:51:01 18° ENE 23:51:01 18° ENE 23:52:02 10° ENE
Cosmos 371 Rocket 4.3 23:46:34 10° NW 23:50:25 33° W 23:50:25 33° W
SeaSat 1 3.4 23:46:42 10° NE 23:51:10 33° ESE 23:51:20 33° ESE
Helios 1B rocket 2.5 23:51:30 10° N 23:55:23 72° NW 23:55:23 72° NW
